Group_ship,Cruise,JD_GMT,Date_DDMMYYYY,TIME_HH:MM:SS,Lat_dec_degree,Long_dec_degree,xCO2eq_ppm,xCO2a_ppm,Pres_Equi_hPa,Pres_sealevel_hPa,EqTemp_C,SST(TSG)_C,Sal(TSG)_Permil,Water_flow_l/min,Gasflow_IR_ml/min,Temp_IR_C,Pres_IR_hPa,Ship_heading_true_degree,Ship_speed_knot,Wind_dir_rel_degree,Wind_speed_rel_m/s,fCO2W@SST_uatm,Qcflag_water,fCO2a_uatm,Qcflag_air,dfCO2_uatm,Fluoro_ug/l,Wind_speed_true_m/s,Wind_dir_true_degree,Air_temp_C,Oxygen
AOML_Explorer,Ex0515W,100.972,10042005,23:19:07,25.435,-80.007,369.31,-9,1012.94,1010.23,24.97,25.15,36.329,1.11,77.75,30.9,1012.94,181.6,19.4,265.7,10.91,359.11,2,-9,9,-9,0.1,15.6,45.71,23.75,-9
AOML_Explorer,Ex0515W,100.973,10042005,23:21:40,25.421,-80.007,369.62,-9,1013.04,1010.21,24.99,25.14,36.336,1.11,78.33,30.91,1013.04,180.6,19.4,261.6,11.51,359.08,2,-9,9,-9,0.1,16.54,43.87,23.73,-9
AOML_Explorer,Ex0515W,100.975,10042005,23:24:13,25.408,-80.007,369.92,-9,1012.89,1010.48,25,25.13,36.335,1.12,77.64,30.91,1012.89,181.1,19.5,263.8,10.51,359.05,2,-9,9,-9,0.09,15.55,43.16,23.81,-9
AOML_Explorer,Ex0515W,100.977,10042005,23:26:46,25.394,-80.008,369.87,-9,1012.92,1010.21,24.99,25.13,36.333,1.11,77.38,30.92,1012.92,182.2,19.5,263.9,11.51,359.14,2,-9,9,-9,0.1,16.24,46.79,23.8,-9
AOML_Explorer,Ex0515W,100.979,10042005,23:29:19,25.38,-80.008,369.93,-9,1013.03,1010.44,24.98,25.13,36.342,1.13,78.41,30.93,1013.03,179.7,19.5,264.6,10.41,359.3,2,-9,9,-9,0.11,15.33,42.05,23.85,-9
AOML_Explorer,Ex0515W,100.98,10042005,23:31:52,25.366,-80.009,369.95,-9,1013.07,1010.43,24.99,25.09,36.342,1.09,78.56,30.93,1013.07,182.4,19.5,262.4,11.21,358.63,2,-9,9,-9,0.1,16.25,44.92,23.79,-9
AOML_Explorer,Ex0515W,100.982,10042005,23:34:25,25.352,-80.009,370.08,-9,1013.14,1010.2,24.97,25.06,36.337,1.09,77.99,30.93,1013.14,181.3,19.6,262.9,12.51,358.77,2,-9,9,-9,0.1,17.24,47.17,23.78,-9
AOML_Explorer,Ex0515W,100.984,10042005,23:36:58,25.338,-80.009,369.93,-9,1012.88,1010.21,24.95,25.07,36.33,1.12,76.12,30.94,1012.88,180.9,19.5,265.5,11.51,358.95,2,-9,9,-9,0.11,16.06,46.32,23.79,-9
AOML_Explorer,Ex0515W,100.986,10042005,23:39:31,25.324,-80.009,369.73,-9,1013.05,1010.44,24.93,25.06,36.33,1.14,77.44,30.94,1013.05,180.4,19.5,263.3,10.51,358.98,2,-9,9,-9,0.1,15.32,43.45,23.8,-9
AOML_Explorer,Ex0515W,100.988,10042005,23:42:04,25.31,-80.01,369.41,-9,1013,1010.44,24.92,25.03,36.341,1.15,77.72,30.94,1013,180.9,19.6,259.7,10.81,358.36,2,-9,9,-9,0.11,16.24,41.52,23.74,-9
AOML_Explorer,Ex0515W,100.989,10042005,23:44:37,25.296,-80.009,369.41,-9,1012.97,1010.43,24.92,25.01,36.337,1.13,77.64,30.94,1012.97,175.8,19.6,267.6,11.21,358.07,2,-9,9,-9,0.1,15.55,41.9,23.84,-9
AOML_Explorer,Ex0515W,100.991,10042005,23:47:10,25.283,-80.008,369.33,-9,1013.02,1009.92,24.89,25,36.338,1.13,77.55,30.94,1013.02,176.2,19.7,264.4,13.81,358.24,2,-9,9,-9,0.1,18.08,45.51,23.71,-9
AOML_Explorer,Ex0515W,100.993,10042005,23:49:43,25.269,-80.007,369.11,-9,1013.01,1010.2,24.88,24.98,36.336,1.13,77.71,30.94,1013.01,175.8,19.8,266.5,12.51,358.05,2,-9,9,-9,0.1,16.72,44.01,23.73,-9
AOML_Explorer,Ex0515W,100.995,10042005,23:52:16,25.255,-80.006,368.85,-9,1013.12,1009.91,24.87,24.94,36.34,1.17,78.27,30.94,1013.12,175.9,19.9,267.3,14.01,357.43,2,-9,9,-9,0.1,17.84,47.52,23.82,-9
AOML_Explorer,Ex0515W,100.996,10042005,23:54:49,25.241,-80.005,367.46,-9,1013.04,1010.19,24.84,24.9,36.34,1.16,77.66,30.93,1013.04,176,19.8,266.2,12.51,355.87,2,-9,9,-9,0.11,16.76,44.04,23.78,-9
AOML_Explorer,Ex0515W,100.998,10042005,23:57:22,25.226,-80.004,369.06,-9,1013.09,1010.19,24.82,24.88,36.32,1.16,77.59,30.92,1013.09,175.8,19.9,267.5,10.71,357.52,2,-9,9,-9,0.1,15.22,40.4,23.81,-9
AOML_Explorer,Ex0515W,101,10042005,23:59:55,25.212,-80.003,368.43,-9,1013.07,1010.21,24.77,24.82,36.321,1.18,77.57,30.92,1013.07,175.6,19.9,268.3,-9,356.78,2,-9,9,-9,0.11,16.71,45.12,23.76,-9
AOML_Explorer,Ex0515W,101.012,11042005,0:16:34,25.12,-80.003,364.84,-9,1013.74,1010.77,24,24.1,36.296,1.18,77.93,31,1013.74,183.8,19.9,272.3,11.11,354.69,2,-9,9,-9,0.15,14.9,51.98,23.71,-9
AOML_Explorer,Ex0515W,101.013,11042005,0:19:07,25.106,-80.004,364.84,-9,1013.5,1010.48,24.02,23.96,36.318,1.21,77.58,31,1013.5,183.6,20,269.8,11.31,352.48,2,-9,9,-9,0.15,15.41,50.79,23.72,-9
AOML_Explorer,Ex0515W,101.015,11042005,0:21:40,25.092,-80.005,365.26,-9,1013.26,1010.73,23.97,23.89,36.311,1.24,77.8,31.01,1013.26,183.9,20.1,268.1,10.81,352.59,2,-9,9,-9,0.16,14.72,50.99,23.69,-9
AOML_Explorer,Ex0515W,101.017,11042005,0:24:13,25.078,-80.006,365.34,-9,1013.34,1010.73,23.89,24.11,36.253,1.25,78.18,31.01,1013.34,183.6,20,273.2,11.01,356.72,2,-9,9,-9,0.15,15.4,49.26,23.76,-9
AOML_Explorer,Ex0515W,101.019,11042005,0:26:46,25.064,-80.007,364.62,-9,1013.28,1010.7,23.92,24.06,36.334,1.46,77.72,31.01,1013.28,183.4,20.1,270.9,11.11,354.91,2,-9,9,-9,0.15,15.16,50.69,23.74,-9
AOML_Explorer,Ex0515W,101.02,11042005,0:29:19,25.049,-80.008,364.84,-9,1013.27,1010.98,24.04,23.95,36.33,1.46,78.19,31.01,1013.27,183.6,20.1,275.8,10.81,352,2,-9,9,-9,0.16,14.26,52.47,23.67,-9
AOML_Explorer,Ex0515W,101.022,11042005,0:31:52,25.035,-80.009,365.23,-9,1013.26,1010.43,23.96,23.91,36.309,1.48,78.09,31.01,1013.26,183.2,20.1,272.3,11.91,352.95,2,-9,9,-9,0.15,15.51,53.21,23.67,-9
AOML_Explorer,Ex0515W,101.024,11042005,0:34:25,25.021,-80.01,365.15,-9,1013.27,1010.72,23.89,23.91,36.317,1.49,76.77,31.01,1013.27,183.3,20.1,271.9,10.11,353.91,2,-9,9,-9,0.15,14.26,48.4,23.67,-9
AOML_Explorer,Ex0515W,101.026,11042005,0:36:58,25.007,-80.011,364.63,-9,1013.26,1010.73,23.88,24.09,36.299,1.52,77.53,31.01,1013.26,183.2,20.2,269.4,10.71,355.93,2,-9,9,-9,0.15,15.04,48.58,23.66,-9
AOML_Explorer,Ex0515W,101.027,11042005,0:39:31,24.993,-80.012,364.36,-9,1013.38,1010.76,23.94,24.25,36.307,1.52,77.63,31.01,1013.38,183.2,20.1,271,11.21,356.85,2,-9,9,-9,0.15,15.15,50.89,23.68,-9
AOML_Explorer,Ex0515W,101.029,11042005,0:42:04,24.978,-80.013,364.93,-9,1013.49,1010.99,24.06,24.27,36.348,1.52,77.31,31,1013.49,183,20,280.2,9.5,355.99,2,-9,9,-9,0.16,13.2,48.74,23.73,-9
AOML_Explorer,Ex0515W,101.031,11042005,0:44:37,24.964,-80.014,366.1,-9,1013.46,1010.99,24.17,24.15,36.38,1.55,77.63,30.99,1013.46,183.1,20.1,274.1,10.41,354.12,2,-9,9,-9,0.14,14.13,50.47,23.67,-9
AOML_Explorer,Ex0515W,101.033,11042005,0:47:10,24.95,-80.015,367.33,-9,1013.49,1010.77,24.15,24.1,36.341,1.53,77.77,30.99,1013.49,183.2,20.1,274.2,11.21,354.92,2,-9,9,-9,0.14,14.68,52.76,23.69,-9
AOML_Explorer,Ex0515W,101.035,11042005,0:49:43,24.936,-80.016,367.06,-9,1013.52,1011,24.05,24.22,36.332,1.53,78.14,30.99,1013.52,182.7,20.1,271.4,10.31,357.62,2,-9,9,-9,0.13,14.44,48.41,23.71,-9
AOML_Explorer,Ex0515W,101.036,11042005,0:52:16,24.922,-80.017,366.99,-9,1013.52,1010.97,24.07,24.4,36.331,1.53,77.86,30.98,1013.52,183,20.1,274.5,11.11,359.76,2,-9,9,-9,0.13,14.45,52.93,23.69,-9
AOML_Explorer,Ex0515W,101.038,11042005,0:54:49,24.907,-80.018,366.58,-9,1013.51,1011,24.2,24.26,36.364,1.53,77.86,30.98,1013.51,185,20.1,271.8,11.01,355.69,2,-9,9,-9,0.14,14.79,52.93,23.75,-9
AOML_Explorer,Ex0515W,101.04,11042005,0:57:22,24.893,-80.02,366.79,-9,1013.52,1011.29,24.19,24.31,36.36,1.57,78.04,30.97,1013.52,190.6,20,274.6,8.6,356.54,2,-9,9,-9,0.14,12.81,52.6,23.72,-9
AOML_Explorer,Ex0515W,101.042,11042005,0:59:55,24.879,-80.024,366.75,-9,1013.6,1011.3,24.19,24.29,36.384,1.52,77.33,30.97,1013.6,195.6,20,274.2,7.6,356.3,2,-9,9,-9,0.15,12.28,54.01,23.73,-9
AOML_Explorer,Ex0515W,101.053,11042005,1:16:34,24.811,-80.086,367.24,-9,1013.89,1011.86,24.55,24.61,36.396,1.56,77.99,31,1013.89,226.3,19.4,288,3.5,356.14,2,-9,9,-9,0.13,9.58,66.88,23.73,-9
AOML_Explorer,Ex0515W,101.055,11042005,1:19:07,24.801,-80.097,368.04,-9,1013.86,1011.58,24.59,24.69,36.342,1.55,77.59,31,1013.86,226.8,19.4,276.3,5.8,357.45,2,-9,9,-9,0.12,11.11,78.19,23.72,-9
AOML_Explorer,Ex0515W,101.057,11042005,1:21:40,24.792,-80.108,368.44,-9,1013.8,1011.88,24.53,24.81,36.356,1.55,77.76,31,1013.8,225.8,19.4,273.1,4.1,360.15,2,-9,9,-9,0.12,10.63,68.78,23.69,-9
AOML_Explorer,Ex0515W,101.058,11042005,1:24:13,24.783,-80.12,367.97,-9,1013.82,1011.87,24.65,24.71,36.363,1.55,76.55,31,1013.82,229.8,19.3,283.8,4.1,356.74,2,-9,9,-9,0.12,9.92,73.65,23.72,-9
AOML_Explorer,Ex0515W,101.06,11042005,1:26:46,24.774,-80.131,367.95,-9,1013.8,1011.55,24.62,24.95,36.272,1.55,77.65,30.99,1013.8,229.3,19.4,271.8,5.8,360.4,2,-9,9,-9,0.12,11.51,79.49,23.75,-9
AOML_Explorer,Ex0515W,101.064,11042005,1:31:52,24.755,-80.154,367.82,-9,1013.81,1011.55,24.99,25.38,36.376,1.54,77.59,30.99,1013.81,228.2,19.4,269.2,5.8,360.8,2,-9,9,-9,0.1,11.76,77.53,23.79,-9
AOML_Explorer,Ex0515W,101.066,11042005,1:34:25,24.746,-80.165,369.63,-9,1013.96,1011.89,25.17,25.45,36.389,1.57,76.77,30.98,1013.96,227,19.5,277.1,6.2,361.02,2,-9,9,-9,0.1,11.19,80.32,23.84,-9
AOML_Explorer,Ex0515W,101.067,11042005,1:36:58,24.737,-80.176,371.52,-9,1013.94,1011.86,25.25,25.47,36.384,1.56,78.04,30.97,1013.94,227.2,19.3,290.3,4.6,362.05,2,-9,9,-9,0.1,9.52,74.56,23.84,-9
AOML_Explorer,Ex0515W,101.069,11042005,1:39:31,24.727,-80.187,372.81,-9,1013.97,1011.85,25.29,25.37,36.395,1.57,77.09,30.97,1013.97,227.5,19.3,284.7,3.8,361.41,2,-9,9,-9,0.1,9.73,69.46,23.82,-9
AOML_Explorer,Ex0515W,101.071,11042005,1:42:04,24.718,-80.198,373.69,-9,1014.02,1011.88,25.24,25.42,36.355,1.58,77.95,30.96,1014.02,227.7,19.3,279.9,5.4,363.54,2,-9,9,-9,0.11,10.54,78.12,23.82,-9
AOML_Explorer,Ex0515W,101.073,11042005,1:44:37,24.709,-80.21,373.83,-9,1014.03,1011.86,25.22,25.33,36.373,1.58,77.86,30.95,1014.03,227.5,19.2,289.2,4.7,362.87,2,-9,9,-9,0.1,9.5,75.5,23.82,-9
AOML_Explorer,Ex0515W,101.074,11042005,1:47:10,24.7,-80.221,373.5,-9,1014.06,1011.86,25.18,25.34,36.354,1.6,78.34,30.94,1014.06,227.7,19.3,279.6,4.8,363.16,2,-9,9,-9,0.1,10.29,74.95,23.79,-9
AOML_Explorer,Ex0515W,101.076,11042005,1:49:43,24.69,-80.232,373.09,-9,1014.11,1012.06,25.16,25.38,36.341,1.57,77.73,30.94,1014.11,227.8,19.3,288.4,3.7,363.68,2,-9,9,-9,0.1,9.46,69.33,23.77,-9
AOML_Explorer,Ex0515W,101.078,11042005,1:52:16,24.681,-80.243,372.47,-9,1014.14,1012.12,25.17,25.42,36.375,1.59,77.29,30.93,1014.14,227.2,19.3,285.5,4,363.55,2,-9,9,-9,0.09,9.68,70.7,23.77,-9
AOML_Explorer,Ex0515W,101.08,11042005,1:54:49,24.672,-80.254,371.88,-9,1014.11,1012.12,25.26,25.39,36.371,1.54,78.16,30.92,1014.11,227.2,19.4,282.3,3.6,361.27,2,-9,9,-9,0.1,9.83,68.09,23.89,-9
AOML_Explorer,Ex0515W,101.082,11042005,1:57:22,24.663,-80.266,372.03,-9,1014.12,1012.12,25.24,25.35,36.377,1.55,76.87,30.92,1014.12,227.1,19.4,284.2,4,361.06,2,-9,9,-9,0.09,9.84,70.97,23.82,-9
AOML_Explorer,Ex0515W,101.083,11042005,1:59:55,24.653,-80.277,371.97,-9,1014.21,1012.07,25.21,25.34,36.36,1.57,77.75,30.91,1014.21,227.8,19.4,288.4,3.5,361.35,2,-9,9,-9,0.1,9.54,68.3,23.78,-9
AOML_Explorer,Ex0515W,101.097,11042005,2:19:07,24.583,-80.362,369.94,-9,1014.36,1012.36,25.12,25.27,36.379,1.57,77.74,30.95,1014.36,227.7,19.9,285.9,4.1,359.74,2,-9,9,-9,0.1,9.96,71.07,23.84,-9
AOML_Explorer,Ex0515W,101.098,11042005,2:21:40,24.573,-80.374,370.15,-9,1014.38,1012.07,25.13,25.28,36.38,1.55,77.69,30.95,1014.38,227.6,19.9,287.1,5,359.89,2,-9,9,-9,0.1,10.01,76.27,23.86,-9
AOML_Explorer,Ex0515W,101.102,11042005,2:26:46,24.554,-80.397,371.24,-9,1014.35,1012.12,25.05,25.11,36.384,1.55,77.95,30.94,1014.35,227.4,20,283.1,4.3,359.78,2,-9,9,-9,0.1,10.27,71.49,23.82,-9
AOML_Explorer,Ex0515W,101.104,11042005,2:29:19,24.544,-80.409,371.14,-9,1014.35,1012.12,25.01,25.06,36.368,1.56,77.29,30.94,1014.35,227.7,20.1,285.3,5.5,359.69,2,-9,9,-9,0.1,10.38,78.4,23.89,-9
AOML_Explorer,Ex0515W,101.105,11042005,2:31:52,24.535,-80.42,371.03,-9,1014.38,1012.11,24.94,25.02,36.364,1.56,76.35,30.93,1014.38,227.5,20.1,279.8,4.5,360.06,2,-9,9,-9,0.1,10.52,72.3,23.87,-9
AOML_Explorer,Ex0515W,101.107,11042005,2:34:25,24.525,-80.432,370.44,-9,1014.37,1012.33,24.89,25.03,36.37,1.54,77.23,30.92,1014.37,227.5,20.2,277.7,5.2,360.24,2,-9,9,-9,0.1,10.95,75.46,23.85,-9
AOML_Explorer,Ex0515W,101.121,11042005,2:54:49,24.449,-80.524,369.38,-9,1014.46,1012.11,25.45,25.93,36.301,1.57,77.84,30.87,1014.46,227.9,19.2,268.7,7.1,363.38,2,-9,9,-9,0.09,12.02,84.22,24.02,-9
AOML_Explorer,Ex0515W,101.123,11042005,2:57:22,24.44,-80.535,370.4,-9,1014.44,1012.12,25.62,25.95,36.281,1.56,77.52,30.86,1014.44,228.2,19.1,273.9,6.6,362.26,2,-9,9,-9,0.09,11.23,83.98,24.08,-9
AOML_Explorer,Ex0515W,101.125,11042005,2:59:55,24.431,-80.546,371.38,-9,1014.4,1012.05,25.7,26.02,36.274,1.56,77.27,30.85,1014.4,227.8,19.1,264.8,6.6,363,2,-9,9,-9,0.09,12.13,80.84,23.98,-9
AOML_Explorer,Ex0515W,101.138,11042005,3:19:07,24.378,-80.64,373.14,-9,1014.58,1012.39,25.88,26.11,36.275,1.57,77.85,30.9,1014.58,245.8,19.1,270.8,3.4,363.45,2,-9,9,-9,0.09,10.45,85,24.08,-9
AOML_Explorer,Ex0515W,101.14,11042005,3:21:40,24.372,-80.654,373.67,-9,1014.57,1012.42,25.89,26.09,36.282,1.55,78.18,30.9,1014.57,246.7,19.1,271,2.6,363.6,2,-9,9,-9,0.08,10.17,81.52,24.04,-9
AOML_Explorer,Ex0515W,101.142,11042005,3:24:13,24.367,-80.667,374.05,-9,1014.64,1012.41,25.88,26.1,36.277,1.58,77.69,30.9,1014.64,246.4,19.1,267.9,3.6,364.26,2,-9,9,-9,0.08,10.67,86.08,24.15,-9
AOML_Explorer,Ex0515W,101.144,11042005,3:26:46,24.362,-80.681,374.36,-9,1014.63,1012.4,25.88,26.05,36.289,1.54,77.6,30.9,1014.63,246.4,19.2,266.6,4.5,363.82,2,-9,9,-9,0.08,11.16,90.11,24.18,-9
AOML_Explorer,Ex0515W,101.145,11042005,3:29:19,24.356,-80.694,374.54,-9,1014.6,1012.35,25.86,26.06,36.286,1.56,78.71,30.9,1014.6,246.5,19.2,290.7,3.6,364.39,2,-9,9,-9,0.09,9.35,87.96,24.21,-9
AOML_Explorer,Ex0515W,101.147,11042005,3:31:52,24.351,-80.708,374.58,-9,1014.59,1012.4,25.86,26.03,36.293,1.57,77.62,30.89,1014.59,246.4,19.2,285.4,3,364.16,2,-9,9,-9,0.08,9.63,84.03,24.11,-9
AOML_Explorer,Ex0515W,101.149,11042005,3:34:25,24.345,-80.722,374.51,-9,1014.6,1012.39,25.84,26.03,36.289,1.55,77.16,30.89,1014.6,246.5,19.3,299.3,2.5,364.28,2,-9,9,-9,0.08,9.06,80.59,24.18,-9
AOML_Explorer,Ex0515W,101.151,11042005,3:36:58,24.34,-80.736,374.46,-9,1014.58,1012.35,25.83,25.98,36.291,1.53,77.62,30.89,1014.58,246.4,19.2,277.5,2.8,363.7,2,-9,9,-9,0.08,10.06,82.59,24.12,-9
AOML_Explorer,Ex0515W,101.152,11042005,3:39:31,24.335,-80.749,374.39,-9,1014.58,1012.39,25.8,25.98,36.292,1.56,77.59,30.88,1014.58,246.6,19.2,301.5,2.2,364.11,2,-9,9,-9,0.08,9.04,78.59,24.21,-9
AOML_Explorer,Ex0515W,101.154,11042005,3:42:04,24.329,-80.763,374.06,-9,1014.55,1012.4,25.78,26,36.298,1.56,78.43,30.88,1014.55,246.6,19.2,285,0.6,364.32,2,-9,9,-9,0.08,9.76,70.13,24.07,-9
AOML_Explorer,Ex0515W,101.156,11042005,3:44:37,24.324,-80.777,374.12,-9,1014.51,1012.4,25.8,25.92,36.312,1.58,78.21,30.88,1014.51,246.2,19.3,346.1,2.6,363.05,2,-9,9,-9,0.08,7.46,71.59,24.15,-9
AOML_Explorer,Ex0515W,101.158,11042005,3:47:10,24.318,-80.79,374.15,-9,1014.52,1012.35,25.76,25.87,36.322,1.55,78.4,30.87,1014.52,246.7,19.3,331.5,3.1,363,2,-9,9,-9,0.08,7.41,78.64,24.1,-9
AOML_Explorer,Ex0515W,101.16,11042005,3:49:43,24.313,-80.804,374.19,-9,1014.5,1012.39,25.71,25.86,36.318,1.56,76.67,30.87,1014.5,247,19.4,329.4,3.7,363.51,2,-9,9,-9,0.09,7.12,82.96,24.13,-9
AOML_Explorer,Ex0515W,101.161,11042005,3:52:16,24.307,-80.818,373.98,-9,1014.5,1012.4,25.68,25.8,36.341,1.57,78.61,30.86,1014.5,246.3,19.5,304.7,4.2,362.89,2,-9,9,-9,0.09,8.55,90.8,24.18,-9
AOML_Explorer,Ex0515W,101.163,11042005,3:54:49,24.302,-80.832,374.1,-9,1014.44,1012.42,25.66,25.78,36.307,1.54,78.21,30.87,1014.44,246.9,19.6,290,2.8,363.08,2,-9,9,-9,0.1,9.6,82.82,24.12,-9
AOML_Explorer,Ex0515W,101.165,11042005,3:57:22,24.296,-80.846,373.8,-9,1014.39,1012.35,25.61,25.81,36.306,1.57,75.86,30.86,1014.39,246.7,19.7,293.2,2.8,363.85,2,-9,9,-9,0.1,9.46,82.65,24.14,-9
AOML_Explorer,Ex0515W,101.167,11042005,3:59:55,24.291,-80.86,373.44,-9,1014.38,1012.4,25.62,25.84,36.301,1.58,77.9,30.86,1014.38,247.2,19.7,291.3,2,363.7,2,-9,9,-9,0.09,9.64,78.34,24.14,-9
AOML_Explorer,Ex0515W,101.18,11042005,4:19:07,24.249,-80.967,373.11,-9,1014.16,1012.12,25.72,25.91,36.33,1.56,78.36,30.94,1014.16,246.8,20.2,318.5,1.9,362.97,2,-9,9,-9,0.1,9.08,74.77,24.11,-9
AOML_Explorer,Ex0515W,101.182,11042005,4:21:40,24.243,-80.981,373.52,-9,1014.16,1012.12,25.73,25.88,36.339,1.57,77.48,30.94,1014.16,246.9,20.3,319.6,2.1,362.79,2,-9,9,-9,0.08,8.97,75.73,24.12,-9
AOML_Explorer,Ex0515W,101.183,11042005,4:24:13,24.237,-80.996,374.15,-9,1014.09,1012.11,25.7,25.86,36.357,1.55,77.53,30.95,1014.09,246.9,20.4,324,1.9,363.45,2,-9,9,-9,0.09,9.05,74.12,24.11,-9
AOML_Explorer,Ex0515W,101.185,11042005,4:26:46,24.232,-81.01,374.76,-9,1014.05,1012.12,25.7,25.69,36.404,1.56,78.32,30.95,1014.05,246.5,20.3,326.2,2.6,361.73,2,-9,9,-9,0.09,8.42,76.46,24.13,-9
AOML_Explorer,Ex0515W,101.187,11042005,4:29:19,24.226,-81.025,375.11,-9,1014.05,1012.11,25.6,25.75,36.384,1.56,77.94,30.95,1014.05,246.6,20.3,315.4,1.7,364.28,2,-9,9,-9,0.1,9.33,74.13,24.13,-9
AOML_Explorer,Ex0515W,101.189,11042005,4:31:52,24.22,-81.039,375.76,-9,1014.08,1012.14,25.58,25.64,36.408,1.55,77.58,30.95,1014.08,246.7,20.3,306,3.1,363.92,2,-9,9,-9,0.09,8.8,82.35,24.11,-9
AOML_Explorer,Ex0515W,101.191,11042005,4:34:25,24.215,-81.054,376.15,-9,1014.04,1012.06,25.54,25.54,36.388,1.57,78.06,30.95,1014.04,246.4,20.4,334.4,0.8,363.37,2,-9,9,-9,0.09,9.73,68.33,24.06,-9
AOML_Explorer,Ex0515W,101.192,11042005,4:36:58,24.209,-81.068,375.8,-9,1014.02,1011.84,25.44,25.47,36.378,1.53,77.6,30.95,1014.02,246.9,20.3,267.5,2,363.57,2,-9,9,-9,0.08,10.72,77.65,24.09,-9
AOML_Explorer,Ex0515W,101.194,11042005,4:39:31,24.203,-81.082,374.78,-9,1014.02,1012.12,25.36,25.34,36.387,1.57,77.84,30.94,1014.02,246.6,20.3,311.6,0.5,362,2,-9,9,-9,0.08,10.12,68.71,24.04,-9
AOML_Explorer,Ex0515W,101.196,11042005,4:42:04,24.197,-81.097,373.68,-9,1014.03,1012.12,25.27,25.35,36.365,1.54,78.39,30.94,1014.03,246.7,20.3,299.2,1.3,362.36,2,-9,9,-9,0.09,9.92,73.25,24.08,-9
AOML_Explorer,Ex0515W,101.198,11042005,4:44:37,24.192,-81.111,372.5,-9,1014.06,1012.11,25.21,25.34,36.382,1.55,77.56,30.93,1014.06,246.8,20.5,297.7,2.2,361.89,2,-9,9,-9,0.09,9.72,78.34,24.1,-9
AOML_Explorer,Ex0515W,101.203,11042005,4:52:16,24.174,-81.155,370.83,-9,1014.1,1012.11,25.06,25.23,36.38,1.57,76.77,30.91,1014.1,246.4,20.3,332.7,2.1,360.84,2,-9,9,-9,0.09,8.62,72.78,24.1,-9
AOML_Explorer,Ex0515W,101.205,11042005,4:54:49,24.169,-81.169,369.73,-9,1014.08,1012.06,25.12,25.56,36.249,1.55,77.84,30.91,1014.08,246.5,20.1,321,2,363.39,2,-9,9,-9,0.09,8.84,74.43,24.05,-9
AOML_Explorer,Ex0515W,101.207,11042005,4:57:22,24.163,-81.183,369.49,-9,1014.06,1012.12,25.15,25.74,36.287,1.53,78.24,30.9,1014.06,246.4,19.9,308.7,2.6,365.01,2,-9,9,-9,0.08,8.81,79.38,24.09,-9
AOML_Explorer,Ex0515W,101.208,11042005,4:59:55,24.158,-81.197,369.79,-9,1014.06,1012.12,25.44,25.87,36.266,1.53,78.17,30.9,1014.06,246.5,19.7,315.4,1.4,362.91,2,-9,9,-9,0.08,9.15,72.48,24.05,-9
AOML_Explorer,Ex0515W,101.222,11042005,5:19:07,24.117,-81.302,372.01,-9,1013.89,1011.85,25.81,26.02,36.242,1.52,78.2,30.96,1013.89,246.5,19.5,287.9,1.2,361.92,2,-9,9,-9,0.08,9.64,73.11,24.14,-9
AOML_Explorer,Ex0515W,101.223,11042005,5:21:40,24.111,-81.316,372.21,-9,1013.85,1011.88,25.82,26.05,36.24,1.54,78.04,30.96,1013.85,247.1,19.3,287,1.5,362.37,2,-9,9,-9,0.09,9.7,75.66,24.13,-9
AOML_Explorer,Ex0515W,101.225,11042005,5:24:13,24.106,-81.33,372.48,-9,1013.82,1011.55,25.83,26.02,36.235,1.56,77.17,30.96,1013.82,246.7,19.3,313.6,3.3,361.95,2,-9,9,-9,0.08,7.93,83.69,24.23,-9
AOML_Explorer,Ex0515W,101.227,11042005,5:26:46,24.1,-81.343,372.79,-9,1013.71,1011.56,25.83,25.99,36.228,1.54,78.17,30.97,1013.71,246.8,19.4,289.4,1.1,361.86,2,-9,9,-9,0.09,9.64,72.91,24.24,-9
AOML_Explorer,Ex0515W,101.229,11042005,5:29:19,24.095,-81.357,372.84,-9,1013.67,1011.57,25.81,25.97,36.215,1.56,78.04,30.96,1013.67,246.9,19.5,254,3.9,362.04,2,-9,9,-9,0.08,11.64,85.83,24.23,-9
AOML_Explorer,Ex0515W,101.23,11042005,5:31:52,24.089,-81.371,372.43,-9,1013.66,1011.55,25.78,25.96,36.215,1.55,77.91,30.96,1013.66,246.7,19.5,250.4,3.6,361.94,2,-9,9,-9,0.08,11.67,83.66,24.18,-9
AOML_Explorer,Ex0515W,101.232,11042005,5:34:25,24.084,-81.385,372.11,-9,1013.68,1011.55,25.78,25.93,36.214,1.54,78.23,30.96,1013.68,246.6,19.5,287.3,3.3,361.25,2,-9,9,-9,0.08,9.51,85.8,24.25,-9
AOML_Explorer,Ex0515W,101.234,11042005,5:36:58,24.078,-81.399,371.82,-9,1013.7,1011.55,25.76,25.93,36.205,1.55,77.9,30.96,1013.7,246.8,19.5,257.3,1.1,361.22,2,-9,9,-9,0.09,10.57,72.17,24.2,-9
AOML_Explorer,Ex0515W,101.236,11042005,5:39:31,24.073,-81.413,371.57,-9,1013.71,1011.56,25.74,25.95,36.209,1.55,77.74,30.96,1013.71,246.3,19.5,304.5,2.2,361.47,2,-9,9,-9,0.09,8.94,77.85,24.23,-9
AOML_Explorer,Ex0515W,101.238,11042005,5:42:04,24.067,-81.427,371.4,-9,1013.69,1011.55,25.76,25.96,36.215,1.54,76.29,30.96,1013.69,246.4,19.6,305.5,1.3,361.18,2,-9,9,-9,0.08,9.37,72.81,24.17,-9
AOML_Explorer,Ex0515W,101.239,11042005,5:44:37,24.062,-81.441,371.3,-9,1013.68,1011.56,25.76,25.97,36.221,1.5,76.65,30.96,1013.68,246.9,19.6,285.2,1.9,361.07,2,-9,9,-9,0.08,9.7,77.68,24.18,-9
AOML_Explorer,Ex0515W,101.241,11042005,5:47:10,24.056,-81.455,371.37,-9,1013.69,1011.54,25.77,25.96,36.22,1.52,78.08,30.95,1013.69,246.8,19.6,289.2,1.5,360.98,2,-9,9,-9,0.08,9.69,75.09,24.19,-9
AOML_Explorer,Ex0515W,101.243,11042005,5:49:43,24.051,-81.468,371.31,-9,1013.7,1011.54,25.77,25.93,36.216,1.52,77.6,30.95,1013.7,246.5,19.8,267.9,3,360.53,2,-9,9,-9,0.08,10.7,82.69,24.2,-9
AOML_Explorer,Ex0515W,101.245,11042005,5:52:16,24.045,-81.483,371.44,-9,1013.73,1011.85,25.76,25.93,36.206,1.52,77.97,30.95,1013.73,246.4,19.7,295.9,1.1,360.84,2,-9,9,-9,0.08,9.7,72.22,24.2,-9
AOML_Explorer,Ex0515W,101.246,11042005,5:54:49,24.039,-81.497,371.12,-9,1013.75,1011.55,25.74,25.94,36.212,1.5,77.65,30.94,1013.75,246.9,19.8,287.5,4,360.93,2,-9,9,-9,0.09,9.76,90.01,24.29,-9
AOML_Explorer,Ex0515W,101.248,11042005,5:57:22,24.034,-81.511,370.94,-9,1013.68,1011.55,25.75,25.96,36.218,1.51,77.8,30.94,1013.68,246.4,19.9,288.7,1.7,360.88,2,-9,9,-9,0.09,9.83,76.03,24.22,-9
AOML_Explorer,Ex0515W,101.25,11042005,5:59:55,24.028,-81.525,370.77,-9,1013.64,1011.54,25.76,26,36.226,1.5,77.86,30.94,1013.64,247,19.9,281.6,4.1,361.01,2,-9,9,-9,0.08,10.26,90.09,24.25,-9
AOML_Explorer,Ex0515W,101.263,11042005,6:19:07,23.986,-81.633,370.68,-9,1013.19,1010.98,25.77,25.97,36.199,1.5,76.66,31.02,1013.19,246.9,20.2,260.7,5.4,360.35,2,-9,9,-9,0.09,12.48,92.19,24.31,-9
AOML_Explorer,Ex0515W,101.265,11042005,6:21:40,23.98,-81.647,370.77,-9,1013.1,1010.77,25.78,25.98,36.199,1.5,77.69,31.03,1013.1,246.2,20.3,258.3,6.6,360.38,2,-9,9,-9,0.1,13.43,95.04,24.27,-9
AOML_Explorer,Ex0515W,101.267,11042005,6:24:13,23.974,-81.662,370.97,-9,1013.05,1010.99,25.79,25.98,36.198,1.5,77.38,31.03,1013.05,246.8,20.2,273,3.6,360.41,2,-9,9,-9,0.09,10.88,86.2,24.3,-9
AOML_Explorer,Ex0515W,101.269,11042005,6:26:46,23.969,-81.676,371.11,-9,1012.95,1010.77,25.79,25.98,36.199,1.51,77,31.03,1012.95,246.8,20.3,251.3,6.5,360.54,2,-9,9,-9,0.09,14.18,91.67,24.25,-9
AOML_Explorer,Ex0515W,101.27,11042005,6:29:19,23.963,-81.69,371.24,-9,1012.92,1010.72,25.79,25.99,36.198,1.48,77.49,31.04,1012.92,246.7,20.3,260.1,3.6,360.68,2,-9,9,-9,0.1,11.59,84.41,24.25,-9
AOML_Explorer,Ex0515W,101.272,11042005,6:31:52,23.957,-81.705,371.24,-9,1012.89,1010.73,25.79,26,36.201,1.51,76.83,31.04,1012.89,246.8,20.2,275.7,3.4,360.71,2,-9,9,-9,0.08,10.64,85.37,24.31,-9
AOML_Explorer,Ex0515W,101.274,11042005,6:34:25,23.952,-81.719,371.19,-9,1012.9,1010.76,25.8,25.99,36.204,1.49,77.77,31.03,1012.9,246.8,20.2,254.1,5.6,360.51,2,-9,9,-9,0.09,13.12,90.98,24.33,-9
AOML_Explorer,Ex0515W,101.276,11042005,6:36:58,23.946,-81.734,371.24,-9,1012.9,1010.77,25.8,25.99,36.204,1.49,77.23,31.03,1012.9,246.6,20.3,260.6,5.3,360.55,2,-9,9,-9,0.08,12.5,91.29,24.33,-9
AOML_Explorer,Ex0515W,101.277,11042005,6:39:31,23.94,-81.748,371.28,-9,1012.89,1010.7,25.8,25.99,36.202,1.52,77.88,31.03,1012.89,246.7,20.3,282.6,3.9,360.64,2,-9,9,-9,0.08,10.39,88.03,24.45,-9
AOML_Explorer,Ex0515W,101.279,11042005,6:42:04,23.934,-81.762,371.3,-9,1012.86,1010.77,25.8,25.99,36.2,1.54,77.05,31.03,1012.86,246.4,20.3,264.7,5,360.62,2,-9,9,-9,0.09,12.05,90.81,24.39,-9
AOML_Explorer,Ex0515W,101.281,11042005,6:44:37,23.929,-81.777,371.26,-9,1012.83,1010.77,25.8,25.96,36.198,1.5,77.52,31.03,1012.83,246.5,20.4,269,4.6,360.2,2,-9,9,-9,0.09,11.55,90.08,24.33,-9